sat.trackr.live / text

‹ back to catalog

STARLINK-3985

NORAD 52644 · 2022-052AY

PAYLOAD ACTIVE UNKNOWN

§ Identity

Operator
Country
US
Launch date
2022-05-14
Launch site
AFETR
Launch vehicle
Mass (kg)
RCS (m²)

Purposes: comms

External: N2YO · Heavens-Above · Gunter

§ Orbital elements

Epoch: 2026-09-20T04:32:29.782176Z

Period
93.79 min
Inclination
53.1598°
Eccentricity
0.0001310
Mean motion
15.35395639 rev/d
Perigee alt
458.8 km
Apogee alt
460.6 km
Semi-major
6,837.9 km
B*
2.8810e-5
RAAN
93.8176°
Arg perigee
86.0423°
Mean anomaly
274.0730°
Rev number
24,065

§ Raw data

STARLINK-39851 52644U 22052AY  26263.18923359  .00000624  00000+0  28810-4 0  99952 52644  53.1598  93.8176 0001310  86.0423 274.0730 15.35395639240655

JSON: /api/v1/satellites/52644 · /tle

For live sub-satellite position, see the globe view (requires WebGL).

§ Visibility from observer

Set your observer location to see the next 7 days of passes ≥ 10°. The values pass through the URL so the page stays shareable.

No JS? Fill the form by hand. The geolocation button needs JavaScript.